Regional Weather Roundup
Issued by NWS Sioux Falls, SD

Home | Current Version | Previous Version | Text Only | Print | Product List | Glossary On
Versions: 1 2 3 4 5 6 7 8 9 10 11 12 13 14 15 16 17 18 19 20 21 22 23 24 25 26 27 28 29 30 31 32 33 34 35 36 37 38 39 40 41 42 43 44 45 46 47 48 49 50
000
ASUS43 KFSD 230110
RWRFSD

WEATHER ROUNDUP FOR SE SOUTH DAKOTA/SW MINNESOTA/NW IOWA
NATIONAL WEATHER SERVICE SIOUX FALLS SD
800 PM CDT MON MAY 22 2017

NOTE: "FAIR" INDICATES FEW OR NO CLOUDS BELOW 12,000 FEET WITH NO
SIGNIFICANT WEATHER AND OR OBSTRUCTIONS TO VISIBILITY.


SDZ038>040-050-052>070-230200-
SOUTHEAST SOUTH DAKOTA

CITY           SKY/WX    TMP DP  RH WIND       PRES   REMARKS
BROOKINGS      CLOUDY    50  47  89 SW5       29.89S
CHAMBERLAIN    MOCLDY    59  45  59 W7        29.97R
HURON          PTCLDY    55  48  77 W8        29.92R
MADISON        MOCLDY    50  50 100 NW8       29.90S
MITCHELL       CLEAR     57  43  59 NW9       29.94R
SIOUX FALLS    CLOUDY    53  46  77 NW12      29.90R
WINNER         FAIR      59  44  57 NW10      29.98S
YANKTON        PTCLDY    55  46  71 NW18      29.92R
$$

MNZ071-072-080-081-089-090-097-098-230200-
SOUTHWEST MINNESOTA

CITY           SKY/WX    TMP DP  RH WIND       PRES   REMARKS
FAIRMONT       LGT RAIN  55  52  89 N7        29.84R
JACKSON        DRIZZLE   54  50  87 N12       29.84S
LUVERNE        CLOUDY    52  41  66 N15G22    29.88R
MARSHALL       LGT RAIN  53  48  83 NW8       29.87R
MONTEVIDEO     MOCLDY    57  43  58 N15G22    29.86R
PIPESTONE      LGT RAIN  52  45  76 N5        29.88S
REDWOOD FALLS  CLOUDY    56  46  69 NW5       29.84R
TRACY          DRIZZLE   52  49  91 W8        29.88R
WINDOM         RAIN      52  48  87 N12       29.86R
WORTHINGTON    MOCLDY    51  46  83 N21       29.86R
$$

IAZ001>003-012>014-020>022-031-032-NEZ013-014-SDZ071-230200-
NORTHWEST IOWA

CITY           SKY/WX    TMP DP  RH WIND       PRES   REMARKS
CHEROKEE       CLEAR     60  49  68 NW7       29.85R
DENISON        CLOUDY    63  48  59 W7        29.88R
ESTHERVILLE    CLOUDY    55  53  93 NE6       29.82S
LE MARS        PTCLDY    61  48  63 NW14G23   29.88R
ORANGE CITY    CLEAR     57  50  77 NW15G24   29.87R
SHELDON        PTCLDY    57  48  72 NW16G23     N/A
SIOUX CITY     PTCLDY    63  48  58 NW17      29.85S
SPENCER        CLEAR     57  50  77 NW12      29.83R
STORM LAKE     CLEAR     61  48  63 NW16G24   29.85R
$$

ABBREVIATIONS USED IN REMARKS
   TC - TEMPERATURE IN CELSIUS
  WCI - WIND CHILL INDEX
   HX - HEAT INDEX
  VSB - VISIBILITY





USA.gov is the U.S. government's official web portal to all federal, state and local government web resources and services.